Location: Artiguedieu
(43.5000°N, 0.5454°E)
Time: 19:55:51
(UTC+00:00)

Vanguard 1 - Pass Details

Date: 29 July 2021
Orbit: 652 x 3831 km, 34.3° (Epoch: 19 September)

Event Time Altitude Azimuth Distance (km) Brightness Sun altitude
Rises 19:07:05 0° 263° (W) 5,862 15.2 1.9°
Reaches altitude 10° 19:15:00 10° 236° (SW) 5,635 14.4 0.6°
Maximum altitude 19:20:02 12° 219° (SW) 5,883 14.2 -0.2°
Drops below altitude 10° 19:25:42 10° 202° (SSW) 6,414 14.2 -1.2°
Sets 19:37:21 0° 177° (S) 7,896 14.4 -3.0°
